Regional Weather Roundup
Issued by NWS

Home | Current Version | Previous Version | Graphics & Text | Print | Product List | Glossary On
Versions: 1 2 3 4 5 6 7 8 9 10 11 12 13 14 15 16 17 18 19 20 21 22 23 24 25 26 27 28 29 30 31 32 33 34 35 36 37 38 39 40 41 42 43 44 45 46 47 48 49 50
000
ASUS43 KIND 272309
RWRIN

WEATHER ROUNDUP FOR INDIANA
NATIONAL WEATHER SERVICE INDIANAPOLIS IN
700 PM EDT THU AUG 27 2015

NOTE: "FAIR" INDICATES FEW OR NO CLOUDS BELOW 12,000 FEET WITH NO
SIGNIFICANT WEATHER AND/OR OBSTRUCTIONS TO VISIBILITY.

* - STATION DOES NOT REPORT WEATHER SUCH AS PRECIPITATION OR FOG.

+ - STATION NOT QUALITY CONTROLLED BY THE NATIONAL WEATHER SERVICE.
    USE DATA WITH CAUTION...ESPECIALLY DEWPOINT AND RELATIVE
    HUMIDITY OBSERVATIONS.

INZ001>003-010>013-019-020-280000-
NORTHWEST INDIANA

CITY           SKY/WX    TMP DP  RH WIND       PRES   REMARKS
GARY /AIRPORT/ PTSUNNY   72  54  53 NE6       30.15S
KNOX *+        SUNNY     72  52  49 CALM      30.14R
LA PORTE +     MOSUNNY   70  57  64 E3        30.16S
MICHIGAN CITY+ SUNNY     66  54  63 N5        30.15S
MONTICELLO +   MOSUNNY   73  60  63 NE3       30.13R
RENSSELAER +   SUNNY     72  57  60 CALM      30.14R
VALPARAISO     SUNNY     70  57  63 NE3       30.15S

$$

LMZ046-743>745-280000-
SOUTHERN LAKE MICHIGAN

STATION/POSITION TIME  TEMP    WIND        PRES    WAVE
                       AIR SEA DIR/SP/G            HT
                 (UTC) (F)     (DEG/KT/KT) (MB)    (FT)
BURNS HARBOR     2200   69      50/  7/  8 1021.0F
MICHIGAN CITY    2200   69     320/  4/  5   N/A
5NW MICH CITY    2300   68 72   CALM  /  2   N/A     0

$$

INZ004-005-014>016-021>024-280000-
NORTH CENTRAL INDIANA

CITY           SKY/WX    TMP DP  RH WIND       PRES   REMARKS
ELKHART        MOSUNNY   70  54  56 SE5       30.16F
GOSHEN         MOSUNNY   70  55  59 NE5       30.15F
LOGANSPORT +   SUNNY     72  52  49 CALM      30.14S
PERU/GRISSOM   SUNNY     73  57  58 E1        30.13S
ROCHESTER +    MOSUNNY   73  57  56 NE3       30.14S
SOUTH BEND     CLOUDY    68  54  60 E6        30.15F
WARSAW +       MOSUNNY   70  55  60 NE5       30.15S

$$

INZ006>009-017-018-025>027-280000-
NORTHEAST INDIANA

CITY           SKY/WX    TMP DP  RH WIND       PRES   REMARKS
ANGOLA *+      CLOUDY    68  61  77 CALM      30.17S
AUBURN +       SUNNY     70  54  56 NE5       30.17S
FORT WAYNE     MOSUNNY   72  54  53 CALM      30.15F
HUNTINGTON +   MOSUNNY   71  53  52 NE5       30.15S

$$

INZ028-029-035-036-043>045-051>053-280000-
WEST CENTRAL INDIANA

CITY           SKY/WX    TMP DP  RH WIND       PRES   REMARKS
CRAWFORDSVL +  SUNNY     71  57  60 CALM      30.13R
GREENCASTLE +  MOSUNNY   73  57  56 CALM      30.13R
LAFAYETTE      CLOUDY    75  57  53 NE6       30.12R
TERRE HAUTE    PTSUNNY   78  61  55 CALM      30.11S

$$

INZ030>032-037>040-046>048-054>057-064-065-280000-
CENTRAL INDIANA

CITY           SKY/WX    TMP DP  RH WIND       PRES   REMARKS
COLUMBUS       MOSUNNY   75  50  41 CALM      30.12F
FRANKFORT +    MOSUNNY   74  61  61 NE3       30.15S
GREENWOOD *+   MOSUNNY   75  52  43 SE3       30.13
INDIANAPOLIS   MOSUNNY   76  55  48 S6        30.10F
-EAGLE CREEK   SUNNY     75  59  57 CALM      30.11F
KOKOMO *+      SUNNY     72  55  56 E3        30.13F
MARION +       SUNNY     73  45  36 CALM      30.14F
MT COMFORT *+  SUNNY     75  50  41 E3        30.13S
SHELBYVILLE    SUNNY     77  60  55 CALM      30.12S
ZIONSVILLE +   SUNNY     76  57  53 CALM      30.13F

$$

INZ033-034-041-042-049-050-058-059-280000-
EAST CENTRAL INDIANA

CITY           SKY/WX    TMP DP  RH WIND       PRES   REMARKS
MUNCIE         SUNNY     72  56  57 NE5       30.14F

$$

INZ060-061-067>069-081>083-085>088-280000-
SOUTHWEST INDIANA

CITY           SKY/WX    TMP DP  RH WIND       PRES   REMARKS
EVANSVILLE     MOSUNNY   80  56  43 CALM      30.11S
HUNTINGBURG *+ SUNNY     79  59  50 SE6       30.11S
WASHINGTON +   SUNNY     79  49  35 CALM      30.10S

$$

INZ062-063-066-070>080-084-089>092-280000-
SOUTH CENTRAL AND SOUTHEAST INDIANA

CITY           SKY/WX    TMP DP  RH WIND       PRES   REMARKS
BLOOMINGTON    SUNNY     77  58  51 S5        30.12S
MADISON *+     SUNNY     75  54  46 E3        30.15S
NORTH VERNON + SUNNY     77  55  47 CALM      30.13F
SEYMOUR +      SUNNY     75  59  57 CALM      30.12S

$$




USA.gov is the U.S. government's official web portal to all federal, state and local government web resources and services.